Weather History for Camdenton, MO

Change the Weather History Date:

Tuesday, January 1, 2013

  Actual Average (KAIZ) Record (KAIZ)
Temperature  
Mean Temperature 24 °F -  
Max Temperature 32 °F 41 °F 69 °F (2005)
Min Temperature 17 °F 24 °F 3 °F (2001)
Degree Days  
Heating Degree Days 40    
Moisture  
Dew Point 21 °F    
Average Humidity 90    
Maximum Humidity 100    
Minimum Humidity 74    
Precipitation  
Precipitation 0.00 in - - ()
Sea Level Pressure  
Sea Level Pressure 30.20 in    
Wind  
Wind Speed 6 mph (NNW)    
Max Wind Speed 10 mph    
Max Gust Speed -    
Visibility 8 miles    
Events Snow    
Averages and records for this station are not official NWS values.
T = Trace of Precipitation, MM = Missing Value Source: NWS Daily Summary

Daily Weather History Graph

Daily Weather History Graph

Search for Another Location

Airport:

Trip Planner

Search our weather history database for the weather conditions in past years. The results will help you decide how hot, cold, wet, or windy it might be!

Date:

Astronomy

Jan. 01, 2013 Rise Set
Actual Time 7:26 AM CST 5:02 PM CST
Civil Twilight 6:57 AM CST 5:31 PM CST
Nautical Twilight 6:24 AM CST 6:04 PM CST
Astronomical Twilight 5:52 AM CST 6:36 PM CST
Moon 9:29 PM CST (1/1) 9:43 AM CST (1/1)
Length of Visible Light 10h 34m
Length of Day
9h 35m
Waning Gibbous, 83% of the Moon is Illuminated
Jan 1
Waning Gibbous
Jan 4
Last Quarter
Jan 11
New
Jan 18
First Quarter
Jan 26
Full

Hourly Weather History & Observations

Time (CST) Temp. Windchill Dew Point Humidity Pressure Visibility Wind Dir Wind Speed Gust Speed Precip Events Conditions
12:15 AM 32.0 °F 26.4 °F 32.0 °F 100% 30.08 in 3.0 mi North 5.8 mph - N/A Snow Light Snow
12:35 AM 32.0 °F 26.4 °F 32.0 °F 100% 30.09 in 1.8 mi North 5.8 mph - N/A Snow Light Snow
12:55 AM 32.0 °F 26.4 °F 32.0 °F 100% 30.08 in 3.0 mi North 5.8 mph - N/A Snow Light Snow
1:15 AM 32.0 °F 25.6 °F 32.0 °F 100% 30.10 in 3.0 mi North 6.9 mph - N/A Snow Light Snow
1:35 AM 32.0 °F 26.4 °F 32.0 °F 100% 30.10 in 4.0 mi NNE 5.8 mph - N/A Snow Light Snow
2:15 AM 30.2 °F 23.4 °F 30.2 °F 100% 30.12 in 3.0 mi North 6.9 mph - N/A Snow Light Snow
2:35 AM 30.2 °F 23.4 °F 30.2 °F 100% 30.11 in 3.0 mi North 6.9 mph - N/A Snow Light Snow
3:15 AM 28.4 °F 22.2 °F 28.4 °F 100% 30.10 in 5.0 mi North 5.8 mph - N/A   Overcast
3:35 AM 28.4 °F 20.4 °F 28.4 °F 100% 30.12 in 5.0 mi NNW 8.1 mph - N/A   Overcast
3:55 AM 28.4 °F 19.7 °F 28.4 °F 100% 30.12 in 5.0 mi NNW 9.2 mph - N/A   Overcast
4:15 AM 26.6 °F 18.2 °F 26.6 °F 100% 30.12 in 4.0 mi North 8.1 mph - N/A Snow Light Snow
4:35 AM 26.6 °F 19.1 °F 26.6 °F 100% 30.11 in 5.0 mi North 6.9 mph - N/A   Overcast
4:55 AM 26.6 °F 19.1 °F 26.6 °F 100% 30.09 in 7.0 mi North 6.9 mph - N/A   Overcast
5:15 AM 26.6 °F 21.2 °F 26.6 °F 100% 30.11 in 5.0 mi North 4.6 mph - N/A   Overcast
5:35 AM 26.6 °F - 26.6 °F 100% 30.12 in 5.0 mi Calm Calm - N/A   Overcast
6:15 AM 26.6 °F 19.1 °F 26.6 °F 100% 30.16 in 7.0 mi NNW 6.9 mph - N/A   Overcast
6:35 AM 24.8 °F 16.1 °F 24.8 °F 100% 30.17 in 7.0 mi NNW 8.1 mph - N/A   Overcast
6:55 AM 24.8 °F 16.1 °F 24.8 °F 100% 30.19 in 10.0 mi NNW 8.1 mph - N/A   Overcast
7:15 AM 23.0 °F 13.1 °F 23.0 °F 100% 30.18 in 10.0 mi NNW 9.2 mph - N/A   Overcast
7:35 AM 23.0 °F 13.1 °F 23.0 °F 100% 30.19 in 10.0 mi NNW 9.2 mph - N/A   Overcast
7:55 AM 23.0 °F 13.1 °F 23.0 °F 100% 30.20 in 10.0 mi NNW 9.2 mph - N/A   Overcast
8:15 AM 23.0 °F 13.9 °F 23.0 °F 100% 30.21 in 10.0 mi NNW 8.1 mph - N/A   Overcast
8:35 AM 23.0 °F 13.1 °F 23.0 °F 100% 30.22 in 10.0 mi NNW 9.2 mph - N/A   Overcast
8:55 AM 23.0 °F 12.4 °F 23.0 °F 100% 30.19 in 10.0 mi NNW 10.4 mph - N/A   Overcast
9:15 AM 21.2 °F 11.7 °F 21.2 °F 100% 30.20 in 10.0 mi NNW 8.1 mph - N/A   Overcast
9:35 AM 21.2 °F 13.6 °F 21.2 °F 100% 30.22 in 10.0 mi North 5.8 mph - N/A   Overcast
9:55 AM 21.2 °F 12.6 °F 21.2 °F 100% 30.24 in 10.0 mi NNW 6.9 mph - N/A   Overcast
10:15 AM 21.2 °F 12.6 °F 21.2 °F 100% 30.23 in 10.0 mi North 6.9 mph - N/A   Mostly Cloudy
10:35 AM 21.2 °F 12.6 °F 21.2 °F 100% 30.23 in 10.0 mi North 6.9 mph - N/A   Scattered Clouds
11:15 AM 23.0 °F 17.0 °F 21.2 °F 93% 30.23 in 10.0 mi North 4.6 mph - N/A   Scattered Clouds
11:35 AM 23.0 °F 15.8 °F 19.4 °F 86% 30.22 in 10.0 mi NNW 5.8 mph - N/A   Overcast
11:55 AM 23.0 °F 17.0 °F 19.4 °F 86% 30.21 in 10.0 mi North 4.6 mph - N/A   Overcast
12:15 PM 24.8 °F 19.1 °F 19.4 °F 80% 30.21 in 10.0 mi North 4.6 mph - N/A   Overcast
12:35 PM 24.8 °F 16.9 °F 19.4 °F 80% 30.21 in 10.0 mi NNW 6.9 mph - N/A   Overcast
1:15 PM 24.8 °F 16.9 °F 19.4 °F 80% 30.21 in 10.0 mi NNW 6.9 mph - N/A   Overcast
1:35 PM 24.8 °F 17.9 °F 19.4 °F 80% 30.20 in 10.0 mi NW 5.8 mph - N/A   Overcast
1:55 PM 24.8 °F 16.9 °F 19.4 °F 80% 30.20 in 10.0 mi NW 6.9 mph - N/A   Overcast
2:15 PM 24.8 °F 16.9 °F 19.4 °F 80% 30.21 in 10.0 mi WNW 6.9 mph - N/A   Overcast
2:35 PM 24.8 °F 16.9 °F 19.4 °F 80% 30.20 in 10.0 mi NW 6.9 mph - N/A   Overcast
2:55 PM 24.8 °F 16.1 °F 19.4 °F 80% 30.21 in 10.0 mi NW 8.1 mph - N/A   Overcast
3:15 PM 24.8 °F 16.9 °F 19.4 °F 80% 30.22 in 10.0 mi NW 6.9 mph - N/A   Overcast
3:35 PM 24.8 °F 17.9 °F 17.6 °F 74% 30.23 in 10.0 mi NW 5.8 mph - N/A   Overcast
3:55 PM 24.8 °F 17.9 °F 17.6 °F 74% 30.22 in 10.0 mi NW 5.8 mph - N/A   Overcast
4:15 PM 24.8 °F 17.9 °F 17.6 °F 74% 30.23 in 10.0 mi NNW 5.8 mph - N/A   Overcast
4:35 PM 24.8 °F 20.5 °F 17.6 °F 74% 30.23 in 10.0 mi NW 3.5 mph - N/A   Overcast
4:55 PM 23.0 °F - 17.6 °F 80% 30.23 in 10.0 mi Calm Calm - N/A   Overcast
5:15 PM 23.0 °F - 17.6 °F 80% 30.24 in 10.0 mi Calm Calm - N/A   Scattered Clouds
5:35 PM 23.0 °F - 17.6 °F 80% 30.24 in 10.0 mi Calm Calm - N/A   Clear
5:55 PM 23.0 °F - 17.6 °F 80% 30.24 in 10.0 mi Calm Calm - N/A   Clear
6:15 PM 21.2 °F - 15.8 °F 80% 30.24 in 10.0 mi Calm Calm - N/A   Clear
6:35 PM 21.2 °F - 15.8 °F 80% 30.23 in 10.0 mi Calm Calm - N/A   Clear
6:55 PM 21.2 °F - 14.0 °F 74% 30.23 in 10.0 mi Calm Calm - N/A   Clear
7:15 PM 21.2 °F - 15.8 °F 80% 30.23 in 10.0 mi Calm Calm - N/A   Clear
7:35 PM 21.2 °F - 14.0 °F 74% 30.24 in 10.0 mi Calm Calm - N/A   Clear
7:55 PM 19.4 °F - 14.0 °F 80% 30.23 in 10.0 mi Calm Calm - N/A   Clear
8:15 PM 19.4 °F - 14.0 °F 80% 30.24 in 10.0 mi Calm Calm - N/A   Clear
8:35 PM 19.4 °F 14.3 °F 14.0 °F 80% 30.25 in 10.0 mi West 3.5 mph - N/A   Clear
8:55 PM 19.4 °F - 14.0 °F 80% 30.26 in 10.0 mi Calm Calm - N/A   Clear
9:15 PM 17.6 °F - 14.0 °F 86% 30.25 in 10.0 mi Calm Calm - N/A   Clear
9:35 PM 19.4 °F - 14.0 °F 80% 30.24 in 10.0 mi Calm Calm - N/A   Clear
9:55 PM 17.6 °F - 14.0 °F 86% 30.24 in 10.0 mi Calm Calm - N/A   Clear
10:15 PM 19.4 °F - 14.0 °F 80% 30.23 in 10.0 mi Calm Calm - N/A   Clear
10:35 PM 19.4 °F 14.3 °F 15.8 °F 86% 30.24 in 10.0 mi West 3.5 mph - N/A   Clear
10:55 PM 17.6 °F 10.7 °F 17.6 °F 100% 30.25 in 10.0 mi West 4.6 mph - N/A   Clear
11:15 PM 17.6 °F 10.7 °F 17.6 °F 100% 30.25 in 10.0 mi West 4.6 mph - N/A   Clear
11:35 PM 17.6 °F 12.3 °F 17.6 °F 100% 30.24 in 7.0 mi West 3.5 mph - N/A   Clear
11:55 PM 17.6 °F - 17.6 °F 100% 30.24 in 7.0 mi Calm Calm - N/A   Clear